Glendale Luke AFB, AZ

10:45 PM MST on December 17, 2017 (GMT -0700)
Luke Air Force Base

Weather History for KLUF - February, 2014

Change the Weather History Date:

Saturday, February 1, 2014

  Actual Average Record
Temperature  
Mean Temperature 56 °F -  
Max Temperature 63 °F 69 °F 83 °F (1935)
Min Temperature 46 °F 37 °F 24 °F (1948)
Degree Days  
Heating Degree Days 10    
Growing Degree Days 6 (Base 50)    
Moisture  
Dew Point 29 °F    
Average Humidity 39    
Maximum Humidity 60    
Minimum Humidity 20    
Precipitation  
Precipitation 0.00 in - - ()
Sea Level Pressure  
Sea Level Pressure 29.87 in    
Wind  
Wind Speed 6 mph (WSW)    
Max Wind Speed 14 mph    
Max Gust Speed -    
Visibility 10 miles    
Events      
Averages and records for this station are not official NWS values.
T = Trace of Precipitation, MM = Missing Value Source: NWS Daily Summary

Daily Weather History Graph

Daily Weather History Graph

Search for Another Location

Airport or City:

Trip Planner

Search our weather history database for the weather conditions in past years. The results will help you decide how hot, cold, wet, or windy it might be!

Date:

Astronomy

Feb. 01, 2014 Rise Set
Actual Time 7:25 AM MST 6:01 PM MST
Civil Twilight 6:59 AM MST 6:27 PM MST
Nautical Twilight 6:29 AM MST 6:56 PM MST
Astronomical Twilight 6:00 AM MST 7:26 PM MST
Moon 8:26 AM MST (2/1) 8:30 PM MST (2/1)
Length of Visible Light 11h 27m
Length of Day
10h 35m
Waxing Crescent, 5% of the Moon is Illuminated
Feb 1
Waxing Crescent
Feb 6
First Quarter
Feb 14
Full
Feb 22
Last Quarter
Mar 1
New

Hourly Weather History & Observations

Time (MST) Temp. Windchill Dew Point Humidity Pressure Visibility Wind Dir Wind Speed Gust Speed Precip Events Conditions
12:58 AM 52.3 °F - 38.5 °F 59% 29.80 in 10.0 mi West 1.2 mph - N/A   Clear
1:58 AM 51.6 °F - 37.2 °F 58% 29.81 in 10.0 mi SW 4.6 mph - N/A   Partly Cloudy
2:58 AM 50.7 °F - 37.4 °F 60% 29.81 in 10.0 mi WSW 2.3 mph - N/A   Clear
3:58 AM 50.9 °F - 36.3 °F 57% 29.81 in 10.0 mi SSW 5.8 mph - N/A   Clear
4:38 AM 50.0 °F - 35.6 °F 58% 29.82 in 10.0 mi SSW 6.9 mph - N/A   Mostly Cloudy
4:58 AM 49.6 °F - 34.3 °F 56% 29.82 in 10.0 mi SW 6.9 mph - N/A   Mostly Cloudy
5:58 AM 49.5 °F - 34.9 °F 57% 29.82 in 10.0 mi WSW 5.8 mph - N/A   Overcast
6:58 AM 48.7 °F - 35.2 °F 60% 29.85 in 10.0 mi SW 8.1 mph - N/A   Overcast
7:48 AM 50.0 °F - 32.0 °F 50% 29.86 in 10.0 mi SW 9.2 mph - N/A   Mostly Cloudy
7:58 AM 48.9 °F - 32.4 °F 53% 29.87 in 10.0 mi WNW 8.1 mph - N/A   Mostly Cloudy
8:58 AM 51.8 °F - 31.6 °F 46% 29.88 in 10.0 mi SSW 4.6 mph - N/A   Scattered Clouds
9:58 AM 53.8 °F - 33.8 °F 47% 29.91 in 10.0 mi South 6.9 mph - N/A   Scattered Clouds
10:58 AM 56.5 °F - 33.1 °F 41% 29.91 in 10.0 mi Variable 5.8 mph - N/A   Partly Cloudy
11:58 AM 59.4 °F - 31.6 °F 35% 29.90 in 10.0 mi SSE 3.5 mph - N/A   Clear
12:58 PM 61.5 °F - 31.3 °F 32% 29.87 in 10.0 mi SW 9.2 mph - N/A   Clear
1:58 PM 63.7 °F - 31.8 °F 30% 29.84 in 10.0 mi South 12.7 mph - N/A   Clear
2:38 PM 62.6 °F - 26.6 °F 26% 29.85 in 10.0 mi West 12.7 mph - N/A   Mostly Cloudy
2:48 PM 62.6 °F - 24.8 °F 24% 29.85 in 10.0 mi West 10.4 mph - N/A   Scattered Clouds
2:58 PM 63.1 °F - 26.1 °F 25% 29.84 in 10.0 mi West 10.4 mph - N/A   Partly Cloudy
3:58 PM 63.7 °F - 27.9 °F 26% 29.84 in 10.0 mi WSW 13.8 mph - N/A   Clear
4:58 PM 62.2 °F - 25.5 °F 25% 29.85 in 10.0 mi WSW 11.5 mph - N/A   Clear
5:18 PM 62.6 °F - 23.0 °F 22% 29.87 in 10.0 mi WNW 10.4 mph - N/A   Mostly Cloudy
5:38 PM 62.6 °F - 21.2 °F 20% 29.88 in 10.0 mi WNW 10.4 mph - N/A   Scattered Clouds
5:58 PM 60.6 °F - 21.9 °F 23% 29.88 in 10.0 mi WNW 9.2 mph - N/A   Clear
6:58 PM 57.4 °F - 21.6 °F 25% 29.90 in 10.0 mi WNW 8.1 mph - N/A   Scattered Clouds
7:58 PM 53.1 °F - 21.0 °F 29% 29.92 in 10.0 mi West 5.8 mph - N/A   Partly Cloudy
8:58 PM 53.1 °F - 19.9 °F 27% 29.94 in 10.0 mi NW 6.9 mph - N/A   Clear
9:58 PM 52.2 °F - 19.4 °F 28% 29.95 in 10.0 mi Variable 4.6 mph - N/A   Clear
10:58 PM 48.0 °F - 21.0 °F 34% 29.97 in 10.0 mi South 5.8 mph - N/A   Clear
11:58 PM 46.4 °F 45.2 °F 19.2 °F 34% 29.98 in 10.0 mi SSE 3.5 mph - N/A   Clear